SCP
0 0 0 0 0 0 0 0 0 0 0 0 0 0 0 0 0 0 0 0 0 0 0 0 1 1 1 1 1 1 1 1 2 2 3 3 3 2 2 1 1 1 1 1
0 0 0 0 0 0 0 0 0 0 0 0 0 0 0 0 0 0 0 0 0 0 0 0 0 1 1 1 1 1 1 2 2 3 3 3 3 3 2 2 1 1 1 1
0 0 0 0 0 0 0 0 0 0 0 0 0 0 0 0 0 0 0 0 0 0 0 0 0 0 1 1 1 1 1 2 2 3 4 4 4 3 3 2 2 1 1 1
0 0 0 0 0 0 0 0 0 0 0 0 0 0 0 0 0 0 0 0 0 0 0 0 0 0 0 0 1 1 1 2 2 3 4 4 4 3 3 2 2 1 1 1
0 0 0 0 0 0 0 0 0 0 0 0 0 0 0 0 0 0 0 0 0 0 0 0 0 0 0 0 0 1 1 1 2 2 3 4 3 3 2 2 2 1 1 1
0 0 0 0 0 0 0 0 0 0 0 0 0 0 0 0 0 0 0 0 0 0 0 0 0 0 0 0 0 0 1 1 1 2 2 3 2 2 2 2 1 1 1 1
0 0 0 0 0 0 0 0 0 0 0 0 0 0 0 0 0 0 0 0 0 0 0 0 0 0 0 0 0 0 0 1 1 1 1 2 1 1 1 1 1 1 1 1
0 0 0 0 0 0 0 0 0 0 0 0 0 0 0 0 0 0 0 0 0 0 0 0 0 0 0 0 0 0 0 0 0 1 1 1 1 1 1 1 1 1 1 1
0 0 0 0 0 0 0 0 0 0 0 0 0 0 0 0 0 0 0 0 0 0 0 0 0 0 0 0 0 0 0 0 0 0 0 0 0 0 0 0 0 0 0 0
0 0 0 0 0 0 0 0 0 0 0 0 0 0 0 0 0 0 0 0 0 0 0 0 0 0 0 0 0 0 0 0 0 0 0 0 0 0 0 0 0 0 0 0
0 0 0 0 0 0 0 0 0 0 0 0 0 0 0 0 0 0 0 0 0 0 0 0 0 0 0 0 0 0 0 0 0 0 0 0 0 0 0 0 0 0 0 0
0 0 0 0 0 0 0 0 0 0 0 0 0 0 0 0 0 0 0 0 0 0 0 0 0 0 0 0 0 0 0 0 0 0 0 0 0 0 0 0 0 0 0 0
0 0 0 0 0 0 0 0 0 0 0 0 0 0 0 0 0 0 0 0 0 0 0 0 0 0 0 0 0 0 0 0 0 0 0 0 0 0 0 0 0 0 0 0
0 0 0 0 0 0 0 0 0 0 0 0 0 0 0 0 0 0 0 0 0 0 0 0 0 0 0 0 0 0 0 0 0 0 0 0 0 0 0 0 0 0 0 0
0 0 0 0 0 0 0 0 0 0 0 0 0 0 0 0 0 0 0 0 0 0 0 0 0 0 0 0 0 0 0 0 0 0 0 0 0 0 0 0 0 0 0 0
0 0 0 0 0 0 0 0 0 0 0 0 0 0 0 0 0 0 0 0 0 0 0 0 0 0 0 0 0 0 0 0 0 0 0 0 0 0 0 0 0 0 0 0
0 0 0 0 0 0 0 0 0 0 0 0 0 0 0 0 0 0 0 0 0 0 0 0 0 0 0 0 0 0 0 0 0 0 0 0 0 0 0 0 0 0 0 0
0 0 0 0 0 0 0 0 0 0 0 0 0 0 0 0 0 0 0 0 0 0 0 0 0 0 0 0 0 0 0 0 0 0 0 0 0 0 0 0 0 0 0 0
0 0 0 0 0 0 0 0 0 0 0 0 0 0 0 0 0 0 0 0 0 0 0 0 0 0 0 0 0 0 0 0 0 0 0 0 0 0 0 0 0 0 0 0
0 0 0 0 0 0 0 0 0 0 0 0 0 0 0 0 0 0 0 0 0 0 0 0 0 0 0 0 0 0 0 0 0 0 0 0 0 0 0 0 0 0 0 0
0 0 0 0 0 0 0 0 0 0 0 0 0 0 0 0 0 0 0 0 0 0 0 0 0 0 0 0 0 0 0 0 0 0 0 0 0 0 0 0 0 0 0 0
0 0 0 0 0 0 0 0 0 0 0 0 0 0 0 -0 0 0 0 0 0 0 0 0 0 0 0 0 0 0 0 0 0 0 0 0 0 0 0 0 0 0 0 0
0 0 0 0 0 0 0 0 0 0 0 0 0 0 -0 -0 0 0 0 0 0 0 0 0 0 0 0 0 0 0 0 0 0 0 0 0 0 0 0 0 0 0 0 0
0 0 0 0 0 0 0 0 0 0 0 0 0 -0 -0 -0 0 0 0 0 0 0 0 0 0 0 0 0 0 0 0 0 0 0 0 0 0 0 0 0 0 0 0 0
0 0 0 0 0 0 0 0 0 0 0 0 0 -0 -0 -0 0 0 0 0 0 0 0 0 0 0 0 0 0 0 0 0 0 0 0 0 0 0 0 0 0 0 0 0
0 0 0 0 0 0 0 0 0 0 0 0 0 0 0 0 0 0 0 0 0 0 0 0 0 0 0 0 0 0 0 0 0 0 0 0 0 0 0 0 0 0 0 0
Wind_Speed
2 4 5 8 9 11 13 14 14 9 3 5 7 4 3 3 2 1 2 4 6 8 10 10 10 9 9 9 8 7 3 5 5 5 6 5 5 4 4 3 5 4 2 3
3 7 10 9 9 10 13 14 14 11 8 8 9 7 3 3 3 4 5 7 9 10 10 9 10 10 11 10 10 10 8 4 5 5 5 6 6 5 5 4 4 5 4 3
9 10 10 10 10 12 13 12 14 14 14 12 13 12 8 5 6 6 5 7 9 9 10 10 10 10 10 10 11 11 11 9 6 6 5 5 5 5 4 4 3 3 3 3
6 11 11 11 12 13 12 13 14 15 13 10 12 10 4 3 9 10 11 10 10 9 9 9 9 10 10 11 11 12 13 11 7 4 6 8 7 6 5 5 4 4 3 3
10 10 11 12 13 13 13 14 16 17 14 14 13 11 1 7 10 11 11 12 12 12 11 11 11 10 11 11 11 11 12 11 9 4 3 7 6 6 5 6 6 4 3 3
9 8 8 10 13 12 14 16 16 14 10 10 9 9 5 9 12 12 12 14 15 15 13 12 12 10 10 10 10 10 10 10 9 5 2 3 6 6 7 7 6 4 3 2
8 11 11 12 13 13 15 13 7 6 3 2 6 4 8 12 14 14 14 15 16 15 15 13 13 12 11 11 11 10 10 9 9 8 6 5 5 5 5 6 6 5 3 2
4 7 11 11 11 11 13 12 8 7 8 8 5 6 6 14 16 16 16 16 16 16 14 13 13 11 11 11 11 11 10 9 9 8 8 7 7 5 4 5 4 4 3 2
7 6 9 8 9 11 11 10 9 7 9 6 4 5 5 16 18 18 19 18 17 16 15 13 13 12 11 11 10 10 9 9 9 8 7 7 6 6 5 5 4 3 3 1
8 2 7 6 7 12 10 9 6 6 6 5 5 7 10 18 18 18 18 17 17 16 14 13 11 12 11 9 9 10 9 9 8 8 6 6 6 5 5 4 4 2 1 1
8 6 6 6 9 12 12 11 8 5 4 4 4 4 9 12 13 14 14 14 14 15 14 12 10 10 9 9 10 9 9 8 7 7 6 6 5 5 5 4 3 2 1 0
7 6 3 10 7 7 10 10 8 5 5 4 2 4 8 9 10 11 11 11 12 12 12 11 10 9 9 9 9 9 8 7 7 6 5 5 5 5 4 4 3 2 2 2
8 7 3 5 4 8 10 11 9 4 3 5 4 4 6 7 8 9 10 9 9 9 9 9 8 8 8 7 7 7 7 6 6 5 4 4 4 4 3 3 3 3 3 4
5 4 9 7 5 6 8 11 11 8 5 4 5 4 6 8 7 8 8 7 7 7 6 7 6 6 5 5 5 5 5 4 4 4 4 4 3 3 2 2 3 4 4 4
6 5 8 7 4 4 7 9 10 10 7 5 4 4 4 6 6 6 7 6 6 7 7 6 6 5 5 5 5 5 5 4 4 4 5 5 4 3 3 3 3 4 4 5
4 1 3 6 4 3 6 8 8 8 7 6 5 3 3 5 5 5 6 6 7 8 8 7 6 6 6 6 6 6 6 6 6 6 6 5 5 5 5 5 5 5 6 7
2 3 3 3 5 3 4 7 7 6 5 4 4 1 3 4 5 6 6 7 8 8 7 8 7 7 7 6 6 6 6 6 6 6 6 7 7 7 7 7 7 6 7 7
5 4 3 2 3 3 6 6 5 4 4 3 2 0 3 2 2 3 6 7 8 8 8 8 7 6 7 7 6 6 7 7 7 6 6 7 7 6 6 6 7 7 6 6
5 4 4 4 2 7 6 6 4 2 4 3 1 1 3 3 2 6 8 7 6 6 6 6 7 6 6 7 6 6 7 7 6 6 6 6 6 6 7 6 6 5 5 5
2 2 5 4 4 3 6 9 5 3 4 5 1 3 5 4 4 6 7 6 6 5 5 6 6 6 6 5 5 6 6 7 7 6 6 6 5 6 7 7 6 5 5 4
4 4 4 4 2 6 9 9 6 2 5 6 3 4 7 8 6 4 6 6 5 4 5 5 6 5 4 4 4 6 6 6 5 4 5 5 5 6 6 6 6 6 5 5
5 2 2 2 2 4 11 8 3 6 7 6 5 5 6 5 5 5 5 5 5 5 5 5 5 5 4 3 4 4 4 3 3 3 3 4 5 6 6 5 5 6 6 6
2 2 3 3 4 7 8 4 6 5 6 6 6 5 3 4 5 6 5 5 5 6 5 4 5 5 5 4 4 3 2 1 2 3 2 3 5 5 5 6 6 5 6 5
3 3 1 2 6 8 8 6 6 4 5 6 5 3 3 4 5 5 4 5 5 5 5 5 5 6 6 4 3 3 2 1 1 3 3 4 5 5 6 5 5 5 6 6
1 4 3 4 6 8 8 8 9 6 6 6 5 3 2 3 4 4 4 5 5 5 5 5 5 5 6 4 4 4 4 4 2 3 4 5 5 4 5 5 5 5 5 5
5 6 4 2 7 7 10 11 11 9 7 7 6 5 3 1 2 4 4 4 4 5 5 5 5 5 6 5 5 4 4 4 4 4 4 3 3 3 4 5 4 7 6 7
Wind_Direction
253 300 15 3 350 330 315 306 302 301 268 269 269 246 180 137 117 83 37 25 30 29 19 25 11 359 349 337 326 313 260 207 194 170 170 164 165 160 156 163 169 177 166 124
258 45 13 345 322 318 317 314 314 315 331 317 299 280 232 163 129 68 35 22 26 18 7 12 7 2 355 349 340 327 318 273 215 195 186 174 165 166 160 165 162 158 164 155
40 33 1 339 339 348 328 325 331 326 321 309 299 279 241 198 131 98 56 32 25 16 3 2 1 359 352 349 345 336 322 309 267 207 185 182 164 157 154 157 144 143 142 144
53 28 4 353 358 348 319 332 322 307 298 288 278 278 264 105 67 40 20 18 21 14 6 0 2 358 352 349 347 339 332 323 308 250 190 176 170 168 166 157 148 148 151 152
65 35 18 5 347 328 317 313 296 284 277 275 276 273 360 46 40 25 10 4 10 6 5 3 3 359 355 354 349 343 338 335 332 321 199 180 175 162 153 143 140 138 133 136
97 76 47 5 336 338 327 312 292 271 256 259 279 280 57 25 15 11 5 5 6 2 359 3 3 3 1 1 355 352 351 353 352 357 20 163 160 147 143 134 132 120 109 92
122 86 55 19 358 354 344 339 330 335 314 302 349 24 52 17 14 8 6 7 5 1 0 3 7 7 7 3 0 360 3 8 9 23 35 64 98 114 124 121 119 119 112 107
351 75 48 23 12 348 349 355 354 330 327 326 25 65 53 9 5 7 8 7 4 2 1 5 11 11 6 4 7 7 11 19 24 36 48 58 67 73 86 98 106 109 108 109
355 71 77 45 29 19 355 356 332 310 310 318 51 74 25 5 2 4 5 4 4 1 2 7 12 11 7 7 11 13 21 29 33 42 53 61 69 77 84 87 89 94 102 135
333 342 94 70 34 35 16 351 344 349 344 345 33 40 359 352 354 358 3 2 359 358 4 9 10 9 7 10 14 18 25 32 35 38 46 58 58 65 75 80 80 84 105 144
341 314 120 81 43 21 15 12 358 346 12 356 2 36 6 351 352 355 359 359 360 2 3 6 9 7 9 18 21 20 21 28 33 38 44 49 50 51 60 67 69 63 33 347
11 317 38 90 89 57 35 15 6 8 12 16 32 43 9 355 354 356 355 356 358 0 2 5 7 8 14 19 17 15 17 24 28 32 39 43 43 44 41 34 24 9 323 295
341 326 20 127 126 43 30 22 17 27 44 33 32 22 6 353 359 358 351 350 353 356 360 2 4 10 14 14 11 13 15 19 24 26 30 37 33 29 20 4 338 309 291 280
287 16 44 49 44 16 24 28 30 39 46 52 45 12 359 353 349 344 341 344 350 357 2 6 6 8 13 18 20 14 14 17 29 33 32 33 26 8 347 335 318 299 287 283
303 59 80 89 85 54 48 44 46 52 56 61 60 40 355 328 325 325 331 345 5 12 10 10 8 10 22 30 33 28 33 32 37 41 36 26 20 7 359 355 341 334 342 346
332 29 144 138 132 99 72 60 58 58 59 83 93 63 307 304 315 348 1 11 23 19 11 6 15 19 29 35 40 37 39 43 44 43 37 30 32 30 26 24 23 23 24 19
324 306 313 129 151 202 81 60 66 70 69 65 62 19 305 328 357 10 12 20 26 21 10 4 16 24 26 30 44 53 46 44 45 48 43 37 36 36 32 28 25 34 44 36
324 332 303 279 180 70 90 107 106 100 98 97 83 279 285 297 335 23 30 24 24 16 9 1 6 23 27 23 39 56 59 48 40 40 47 42 36 34 34 35 35 35 41 46
341 333 306 329 56 123 143 154 164 142 123 133 82 339 299 238 168 60 39 29 27 14 4 354 356 17 27 20 29 49 60 56 42 33 40 42 36 30 27 30 38 37 36 43
221 255 286 296 318 74 133 134 152 226 144 136 120 22 11 33 69 41 24 25 23 17 4 350 352 12 17 13 22 44 54 53 43 31 31 35 36 39 31 22 19 26 31 29
213 201 249 290 321 96 120 136 178 241 114 128 106 53 42 44 45 25 16 21 13 13 11 357 351 360 353 359 23 52 52 55 55 40 32 33 29 50 49 26 20 22 25 24
320 310 303 298 295 127 143 164 197 97 114 125 99 67 54 40 34 26 17 18 11 5 13 3 347 339 334 11 31 55 64 62 75 65 47 51 51 44 45 40 32 29 21 26
236 327 347 9 62 103 150 146 99 121 131 113 100 81 56 37 30 22 14 19 13 5 11 355 341 343 351 23 31 40 71 58 101 84 60 72 77 70 50 43 39 31 26 25
142 105 244 233 162 158 172 145 139 168 120 111 108 101 58 32 27 16 14 24 12 1 358 353 7 5 343 350 31 49 40 325 128 111 79 77 74 76 69 48 44 43 27 20
91 149 219 235 146 151 179 173 167 168 148 145 141 122 80 35 19 8 21 23 4 354 357 10 17 345 330 357 42 55 24 341 15 93 87 84 81 86 89 73 44 48 59 39
201 183 203 224 166 171 181 178 172 169 173 169 162 152 136 90 22 8 22 18 2 1 5 5 3 348 352 11 34 52 27 348 20 68 71 72 87 97 121 123 97 54 65 62